Location: �bnet
(46.9957°N, 8.4908°E)
Time: 14:33:20
(UTC+00:00)

X-37B - Pass Details

Date: 11 May 2021
Orbit: 386 x 389 km, 45.0° (Epoch: 10 June)

Event Time Altitude Azimuth Distance (km) Brightness Sun altitude
Rises 19:57:45 0° 275° (W) 2,274 5.4 -10.3°
Reaches altitude 10° 19:59:55 10° 266° (W) 1,417 4.1 -10.6°
Maximum altitude 20:02:52 34° 199° (SSW) 655 1.5 -11.0°
Enters shadow 20:04:40 19° 143° (SE) 1,013 2.1 -11.2°
